Aksu

Kazakhstan     52˚26′23″N   71˚56′05″E
temp.,
°C
wind,
m/s
gust,
m/s
humid.,
%
clouds,
%
prec.,
mm/h
press.,
hPa
HPBL,
m
27 november, fri
fri2723:00−14˚se23826 0.0 103521
02:00−15˚se23849 0.0 103421
05:00−15˚se228210 0.0 103420
08:00−15˚se348278 0.0 103334
11:00−12˚se348189 0.0 1033117
14:00−10˚ese2385100 0.0 103292
17:00−11˚ese3485100 0.0 103258
20:00−13˚se338526 0.0 103223
28 november, sat
sat2823:00−14˚ese228513 0.0 103220
02:00−14˚e338763 0.0 103128
05:00−13˚ene349181 0.0 103170
08:00−13˚ene4792100 0.0 1030193
11:00−12˚ene5790100 0.0 1030246
14:00−12˚ne5892100 0.0 1030276
17:00−13˚nne51095100 0.0 1032289
20:00−14˚n61096100 0.0 1033303
29 november, sun
sun2923:00−14˚n71196100 0.1 1035294
02:00−14˚nnw71196100 0.0 1036323
05:00−14˚nnw71294100 0.1 1039357
08:00−15˚nnw71295100 0.0 1040322
11:00−14˚nnw71293100 0.0 1042360
14:00−13˚nnw71292100 0.0 1043350
17:00−15˚nnw6119697 0.0 1045266
20:00−17˚nw5109797 0.0 1047231
30 november, mon
mon3023:00−18˚nw489889 0.0 1048149
02:00−19˚nw469843 0.0 104893
05:00−20˚nw449842 0.0 105078
08:00−20˚nnw349951 0.0 105149
11:00−18˚nnw239556 0.0 1051133
14:00−17˚nnw239534 0.0 1051138
17:00−19˚n239722 0.0 105220
20:00−19˚n22980 0.0 105220
1 december, tue
tue123:00−20˚n129910 0.0 105320
02:00−20˚nnw12990 0.0 105320
05:00−20˚nnw11980 0.0 105320
08:00−19˚n12960 0.0 105420
11:00−16˚n01910 0.0 105432
14:00−15˚nnw11900 0.0 105320
17:00−17˚n11900 0.0 105320
20:00−18˚nne11900 0.0 105320